Zurück zum Katalog

DMSP 5D-3 F18 DEB

AktivSSO
NORAD 36099·DEBRIS·🇺🇸 United States

Gestartet Oct 18, 2009 von Vandenberg Space Force Base

Loading…

Nächste Überflüge (nächste 24 Stunden)

TLE

AktuellSource: Space-Track

Epoche: Sep 14, 2026, 13:15 UTC

1 36099U 09057E   26257.55211686  .00002505  00000-0  77147-3 0  9995
2 36099  98.6366 351.8792 0008904  94.0058 266.2149 14.42352019873165

Verfolge DMSP 5D-3 F18 DEB in Echtzeit mit AllMySat

Download on the App Store